Погода в Чакальтайе

Боливия     16°25′24″S   68°07′52″W
темп.,
°C
ветер,
м/с
пор.,
м/с
влажн.,
%
обл.,
%
осадки,
мм/ч
давл.,
гПа
погр.,
м
5 августа, чт
чт523:00+3юв226670 0.0 1027265
02:00+1ююз229799 1.1 1029141
05:00+2с237717 0.1 1025243
08:00+2з34723 0.1 1026231
11:00+9з68475 0.0 10221438
14:00+11з911360 0.1 10181636
17:00+10зсз67370 0.0 10171291
20:00+7ссз33420 0.0 102035
6 августа, пт
пт623:00+4в22680 0.0 102414
02:00+2ссв01560 0.0 102210
05:00+1з01461 0.0 102110
08:00+5ссз11370 0.0 102425
11:00+10зюз22220 0.0 10211174
14:00+13ююз42150 0.0 10152353
17:00+13ю33160 0.0 10142389
20:00+7в11540 0.0 101919
7 августа, сб
сб723:00+5юв23720 0.0 102236
02:00+3вюв22800 0.0 102217
05:00+1з01825 0.0 102210
08:00+4ссз11624 0.0 102368
11:00+10ю21311 0.0 1020911
14:00+13ю332127 0.0 10142196
17:00+13юз232217 0.0 10122267
20:00+8всв33455 0.0 101629
8 августа, вс
вс823:00+5вюв23645 0.0 101949
02:00+3юв227615 0.0 102021
05:00+2ю11855 0.0 102110
08:00+4сз01666 0.0 102269
11:00+10ю32408 0.0 10191050
14:00+14ю342720 0.0 10142486
17:00+13с132923 0.1 10121572
20:00+7всв34631 0.1 1019139
9 августа, пн
пн923:00+5всв23680 0.0 102158
02:00+4всв12720 0.0 102242
05:00+2юв11841 0.0 102312
08:00+4вюв23710 0.0 1024154
11:00+10юв43430 0.0 10201014
14:00+14ююв543374 0.0 10142327
17:00+11св655355 0.1 1016776
20:00+6всв46703 0.1 1020247